Location: Newark
(50.4348°N, 30.5552°E)
Time: 20:58:51
(UTC+00:00)

Vanguard 3 - Pass Details

Date: 27 January 2020
Orbit: 508 x 3263 km, 33.3° (Epoch: 22 February)

Event Time Altitude Azimuth Distance (km) Brightness Sun altitude
Rises 20:10:14 0° 272° (W) 7,092 12.4 -50.1°
Reaches altitude 10° 20:16:37 10° 261° (W) 5,799 11.7 -50.8°
Enters shadow 20:25:58 23° 230° (SW) 4,189 10.6 -51.8°
